Weather in Ilorin

Nigeria     8°29′37″N   4°32′02″E
temp.,
°C
wind,
m/s
gust,
m/s
humid.,
%
clouds,
%
prec.,
mm/h
press.,
hPa
HPBL,
m
28 february, sun
sun2801:00+25ssw48790 0.0 1008318
04:00+23sw37880 0.0 1007304
07:00+23wsw48900 0.6 1009257
10:00+30ssw345564 0.0 1011675
13:00+36se232978 0.0 10072236
16:00+38ssw142324 0.0 10043015
19:00+33ssw222843 0.0 1005476
22:00+30sw233854 0.0 1007132
1 march, mon
mon101:00+26sw497445 0.0 1008367
04:00+23sw258733 0.0 1007152
07:00+22sw249223 0.0 1009177
10:00+30sw215618 0.0 1011763
13:00+37ese12279 0.0 10071726
16:00+40e14160 0.0 10042953
19:00+34e23203 0.0 1005450
22:00+30ssw484569 0.0 1007463
2 march, tue
tue201:00+26ssw497635 0.0 1007333
04:00+24wsw23870 0.0 1007134
07:00+23ssw239212 0.0 1009147
10:00+30wsw225720 0.0 1011811
13:00+37ese352410 0.0 10081834
16:00+40ene45140 0.0 10043826
19:00+35e34200 0.0 1005875
22:00+29ssw510610 0.0 1007454
3 march, wed
wed301:00+26ssw38770 0.0 1008325
04:00+23sw12870 0.0 1007135
07:00+23sw23919 0.0 1009131
10:00+30w22550 0.0 1010808
13:00+38e25200 0.0 10082055
16:00+40ene35130 0.0 10043492
19:00+35ne34130 0.0 1005862
22:00+29ssw511520 0.0 1007623
4 march, thu
thu401:00+26ssw387819 0.0 1008377
04:00+24w23893 0.0 1007150
07:00+22wsw24923 0.0 1009165
10:00+30wsw23588 0.0 1010694
13:00+38ese22234 0.0 10071896
16:00+40sse03161 0.0 10032604
19:00+34ene22180 0.0 1004410
22:00+29ssw47330 0.0 1007234